| time (UTC) | temp C | wind direction | speed KPH | gust KPH | rain 1hr cm | rain 24hr cm | rain mn cm | humidity % | barometer mb |
| 20260504034509 | 12 | 290 | 1.6 | 9.7 | 0.00 | 0.15 | 0.15 | 71 | 1004.2 |
| 20260504033010 | 13 | 298 | 4.8 | 9.7 | 0.00 | 0.15 | 0.15 | 69 | 1004.2 |
| 20260504031509 | 13 | 279 | 1.6 | 8.0 | 0.00 | 0.15 | 0.15 | 68 | 1004.2 |
| 20260504030015 | 13 | 285 | 0.0 | 3.2 | 0.00 | 0.15 | 0.15 | 67 | 1004.3 |
| 20260504024511 | 14 | 270 | 1.6 | 8.0 | 0.00 | 0.15 | 0.15 | 65 | 1004.1 |
| 20260504023008 | 15 | 282 | 1.6 | 11.3 | 0.00 | 0.15 | 0.15 | 63 | 1004.1 |
| 20260504021507 | 15 | 286 | 1.6 | 8.0 | 0.00 | 0.15 | 0.15 | 62 | 1004.0 |
| 20260504020008 | 15 | 267 | 1.6 | 9.7 | 0.00 | 0.15 | 0.15 | 61 | 1003.9 |
| 20260504014512 | 16 | 261 | 3.2 | 9.7 | 0.00 | 0.15 | 0.15 | 58 | 1003.8 |
| 20260504013023 | 16 | 278 | 3.2 | 9.7 | 0.00 | 0.15 | 0.15 | 56 | 1003.7 |
| 20260504011505 | 17 | 309 | 4.8 | 17.7 | 0.00 | 0.15 | 0.15 | 55 | 1003.5 |
| 20260504010007 | 17 | 234 | 3.2 | 12.9 | 0.00 | 0.15 | 0.15 | 53 | 1003.6 |
| 20260504004505 | 18 | 275 | 4.8 | 12.9 | 0.00 | 0.15 | 0.15 | 51 | 1003.6 |
| 20260504003007 | 18 | 267 | 4.8 | 16.1 | 0.00 | 0.15 | 0.15 | 49 | 1003.6 |
| 20260504001504 | 20 | 248 | 8.0 | 16.1 | 0.00 | 0.15 | 0.15 | 46 | 1003.6 |
| 20260504000004 | 20 | 274 | 9.7 | 19.3 | 0.00 | 0.15 | 0.15 | 44 | 1003.6 |
| 20260503234503 | 20 | 276 | 11.3 | 20.9 | 0.00 | 0.15 | 0.15 | 44 | 1003.6 |
| 20260503233003 | 21 | 295 | 9.7 | 22.5 | 0.00 | 0.15 | 0.15 | 42 | 1003.6 |
| 20260503231601 | 21 | 279 | 4.8 | 24.1 | 0.00 | 0.15 | 0.15 | 42 | 1003.7 |
| 20260503230115 | 21 | 313 | 8.0 | 19.3 | 0.00 | 0.15 | 0.15 | 42 | 1003.8 |
| 20260503224606 | 21 | 262 | 11.3 | 32.2 | 0.00 | 0.15 | 0.15 | 43 | 1004.0 |
| 20260503223057 | 21 | 270 | 12.9 | 29.0 | 0.00 | 0.15 | 0.15 | 42 | 1004.1 |
| 20260503221604 | 21 | 277 | 14.5 | 29.0 | 0.00 | 0.15 | 0.15 | 42 | 1004.0 |
| 20260503220054 | 21 | 305 | 6.4 | 22.5 | 0.00 | 0.15 | 0.15 | 42 | 1004.2 |
| 20260503214558 | 20 | 260 | 8.0 | 20.9 | 0.00 | 0.15 | 0.15 | 42 | 1004.4 |
| 20260503213052 | 20 | 305 | 6.4 | 27.4 | 0.00 | 0.15 | 0.15 | 42 | 1004.4 |
| 20260503211550 | 20 | 290 | 9.7 | 29.0 | 0.00 | 0.15 | 0.15 | 42 | 1004.5 |
| 20260503210002 | 20 | 270 | 12.9 | 32.2 | 0.00 | 0.15 | 0.15 | 40 | 1004.7 |
| 20260503204607 | 20 | 320 | 17.7 | 30.6 | 0.00 | 0.15 | 0.15 | 41 | 1004.8 |
| 20260503203103 | 20 | 283 | 9.7 | 30.6 | 0.00 | 0.15 | 0.15 | 43 | 1005.2 |
| 20260503201535 | 19 | 275 | 14.5 | 30.6 | 0.00 | 0.15 | 0.15 | 43 | 1005.5 |
| 20260503200023 | 19 | 274 | 12.9 | 35.4 | 0.00 | 0.15 | 0.15 | 45 | 1005.9 |
| 20260503194603 | 18 | 264 | 17.7 | 35.4 | 0.00 | 0.15 | 0.15 | 44 | 1006.3 |
| 20260503193057 | 18 | 260 | 16.1 | 43.5 | 0.00 | 0.15 | 0.15 | 46 | 1006.6 |
| 20260503191541 | 18 | 226 | 19.3 | 37.0 | 0.00 | 0.15 | 0.15 | 46 | 1006.8 |
| 20260503190033 | 18 | 258 | 14.5 | 37.0 | 0.00 | 0.15 | 0.15 | 47 | 1006.6 |
| 20260503184605 | 17 | 262 | 14.5 | 35.4 | 0.00 | 0.15 | 0.15 | 52 | 1007.1 |
| 20260503183021 | 16 | 286 | 12.9 | 29.0 | 0.00 | 0.15 | 0.15 | 57 | 1007.4 |
| 20260503181605 | 15 | 254 | 12.9 | 37.0 | 0.03 | 0.15 | 0.15 | 62 | 1007.3 |
| 20260503180053 | 14 | 268 | 9.7 | 25.7 | 0.03 | 0.15 | 0.15 | 68 | 1007.6 |
| 20260503174506 | 13 | 230 | 11.3 | 24.1 | 0.03 | 0.15 | 0.15 | 68 | 1008.0 |
| 20260503173002 | 13 | 224 | 8.0 | 25.7 | 0.03 | 0.15 | 0.15 | 67 | 1008.4 |
| 20260503171537 | 13 | 288 | 8.0 | 25.7 | 0.00 | 0.13 | 0.13 | 69 | 1008.7 |
| 20260503081536 | 7 | 295 | 4.8 | 11.3 | 0.00 | 0.00 | 0.00 | 62 | 1013.2 |
| 20260503071526 | 7 | 278 | 3.2 | 12.9 | 0.00 | 0.00 | 0.00 | 61 | 1013.5 |
| 20260503054526 | 7 | 280 | 3.2 | 12.9 | 0.00 | 0.00 | 0.00 | 60 | 1014.1 |
| 20260503053019 | 7 | 263 | 3.2 | 11.3 | 0.00 | 0.00 | 0.00 | 60 | 1014.3 |
| 20260503051506 | 7 | 281 | 3.2 | 8.0 | 0.00 | 0.00 | 0.00 | 60 | 1014.4 |
| 20260503050005 | 7 | 273 | 4.8 | 9.7 | 0.00 | 0.00 | 0.00 | 60 | 1014.5 |
| 20260503044503 | 7 | 258 | 1.6 | 9.7 | 0.00 | 0.00 | 0.00 | 59 | 1014.6 |
| 20260503043002 | 7 | 274 | 3.2 | 9.7 | 0.00 | 0.00 | 0.00 | 58 | 1014.6 |
| 20260503041501 | 7 | 282 | 3.2 | 11.3 | 0.00 | 0.00 | 0.00 | 58 | 1014.7 |
| 20260503040106 | 7 | 279 | 3.2 | 9.7 | 0.00 | 0.00 | 0.00 | 58 | 1014.9 |